Weather History for Anoka County, MN

Change the Weather History Date:

Tuesday, January 29, 2013

  Actual Average Record
Temperature  
Mean Temperature 32 °F -  
Max Temperature 37 °F 23 °F 53 °F (2009)
Min Temperature 28 °F 9 °F -16 °F (2004)
Degree Days  
Heating Degree Days 32    
Moisture  
Dew Point 31 °F    
Average Humidity 92    
Maximum Humidity 100    
Minimum Humidity 80    
Precipitation  
Precipitation 0.00 in - - ()
Sea Level Pressure  
Sea Level Pressure 29.62 in    
Wind  
Wind Speed 6 mph (NNW)    
Max Wind Speed 17 mph    
Max Gust Speed 21 mph    
Visibility 6 miles    
Events      
Averages and records for this station are not official NWS values.
T = Trace of Precipitation, MM = Missing Value Source: NWS Daily Summary

Daily Weather History Graph

Daily Weather History Graph

Search for Another Location

Airport:

Trip Planner

Search our weather history database for the weather conditions in past years. The results will help you decide how hot, cold, wet, or windy it might be!

Date:

Astronomy

Jan. 29, 2013 Rise Set
Actual Time 7:36 AM CST 5:16 PM CST
Civil Twilight 7:04 AM CST 5:48 PM CST
Nautical Twilight 6:29 AM CST 6:23 PM CST
Astronomical Twilight 5:54 AM CST 6:58 PM CST
Moon 8:24 PM CST (1/29) 8:23 AM CST (1/29)
Length of Visible Light 10h 43m
Length of Day
9h 40m
Waning Gibbous, 93% of the Moon is Illuminated
Jan 29
Waning Gibbous
Feb 3
Last Quarter
Feb 10
New
Feb 17
First Quarter
Feb 25
Full

Hourly Weather History & Observations

Time (CST) Temp. Windchill Dew Point Humidity Pressure Visibility Wind Dir Wind Speed Gust Speed Precip Events Conditions
12:14 AM 33.8 °F 30.8 °F 33.8 °F 100% 29.62 in 1.5 mi ESE 3.5 mph - N/A   Overcast
12:34 AM 33.8 °F - 33.8 °F 100% 29.61 in 1.5 mi Calm Calm - N/A   Overcast
12:54 AM 33.8 °F - 33.8 °F 100% 29.60 in 1.5 mi Calm Calm - N/A   Overcast
1:14 AM 33.8 °F 30.8 °F 33.8 °F 100% 29.59 in 1.5 mi North 3.5 mph - N/A   Overcast
1:34 AM 33.8 °F - 33.8 °F 100% 29.58 in 1.5 mi Calm Calm - N/A   Overcast
1:54 AM 33.8 °F 30.8 °F 33.8 °F 100% 29.57 in 2.0 mi NNE 3.5 mph - N/A   Overcast
2:14 AM 33.8 °F 30.8 °F 33.8 °F 100% 29.57 in 2.0 mi North 3.5 mph - N/A   Overcast
2:34 AM 33.8 °F 30.8 °F 33.8 °F 100% 29.56 in 2.5 mi North 3.5 mph - N/A   Overcast
2:54 AM 33.8 °F 30.8 °F 33.8 °F 100% 29.55 in 2.5 mi North 3.5 mph - N/A   Overcast
3:14 AM 33.8 °F 28.6 °F 33.8 °F 100% 29.56 in 2.0 mi NNW 5.8 mph - N/A   Overcast
3:34 AM 33.8 °F 30.8 °F 33.8 °F 100% 29.56 in 2.0 mi NW 3.5 mph - N/A   Overcast
4:14 AM 33.8 °F 28.6 °F 33.8 °F 100% 29.54 in 1.8 mi NNW 5.8 mph - N/A   Overcast
4:34 AM 33.8 °F - 33.8 °F 100% 29.54 in 2.0 mi Calm Calm - N/A   Overcast
4:54 AM 33.8 °F 29.6 °F 33.8 °F 100% 29.55 in 2.0 mi NW 4.6 mph - N/A   Overcast
5:14 AM 33.8 °F 28.6 °F 33.8 °F 100% 29.54 in 2.5 mi NW 5.8 mph - N/A   Overcast
5:34 AM 33.8 °F 27.7 °F 33.8 °F 100% 29.54 in 2.5 mi NW 6.9 mph - N/A   Overcast
6:14 AM 33.8 °F 29.6 °F 33.8 °F 100% 29.53 in 3.0 mi NW 4.6 mph - N/A   Overcast
6:34 AM 33.8 °F 29.6 °F 33.8 °F 100% 29.53 in 4.0 mi NW 4.6 mph - N/A   Overcast
6:50 AM 33.8 °F 27.0 °F 33.8 °F 100% 29.53 in 3.0 mi NW 8.1 mph - N/A   Overcast
6:54 AM 33.8 °F 30.8 °F 33.8 °F 100% 29.53 in 5.0 mi WNW 3.5 mph - N/A   Overcast
7:45 AM 33.8 °F - 33.8 °F 100% 29.54 in 3.0 mi Calm Calm - N/A   Overcast
8:45 AM 33.8 °F 26.4 °F 33.8 °F 100% 29.58 in 5.0 mi West 9.2 mph - N/A   Overcast
9:45 AM 33.8 °F 25.3 °F 33.8 °F 100% 29.58 in 7.0 mi WNW 11.5 mph - N/A   Overcast
10:45 AM 35.6 °F 29.2 °F 32.0 °F 87% 29.63 in 10.0 mi NW 8.1 mph 17.3 mph N/A   Overcast
11:45 AM 35.6 °F 29.2 °F 32.0 °F 87% 29.62 in 10.0 mi NW 8.1 mph - N/A   Overcast
12:45 PM 37.4 °F 30.8 °F 32.0 °F 81% 29.62 in 10.0 mi NW 9.2 mph - N/A   Overcast
1:50 PM 37.4 °F 29.8 °F 32.0 °F 81% 29.62 in 10.0 mi NNW 11.5 mph - N/A   Overcast
2:45 PM 37.4 °F 30.3 °F 32.0 °F 81% 29.62 in 10.0 mi NNW 10.4 mph - N/A   Overcast
3:45 PM 35.6 °F 27.5 °F 30.2 °F 81% 29.64 in 10.0 mi NNW 11.5 mph - N/A   Overcast
4:50 PM 35.6 °F 27.5 °F 30.2 °F 81% 29.64 in 10.0 mi NNW 11.5 mph - N/A   Overcast
5:45 PM 33.8 °F 23.5 °F 28.4 °F 81% 29.66 in 10.0 mi North 16.1 mph - N/A   Overcast
6:50 PM 32.0 °F 21.6 °F 26.6 °F 80% 29.71 in 10.0 mi NNW 15.0 mph - N/A   Overcast
7:55 PM 30.2 °F 18.5 °F 26.6 °F 86% 29.71 in 10.0 mi NNW 17.3 mph - N/A   Overcast
8:50 PM 30.2 °F 20.8 °F 24.8 °F 80% 29.72 in 10.0 mi NNW 11.5 mph - N/A   Overcast
9:14 PM 30.2 °F 20.2 °F 26.6 °F 86% 29.69 in 10.0 mi NNW 12.7 mph - N/A   Overcast
9:34 PM 30.2 °F 20.2 °F 24.8 °F 80% 29.69 in 10.0 mi NNW 12.7 mph - N/A   Overcast
9:54 PM 30.2 °F 19.8 °F 24.8 °F 80% 29.70 in 10.0 mi North 13.8 mph - N/A   Overcast
10:14 PM 30.2 °F 20.8 °F 26.6 °F 86% 29.73 in 10.0 mi NNW 11.5 mph - N/A   Overcast
10:34 PM 30.2 °F 18.9 °F 24.8 °F 80% 29.73 in 10.0 mi NNW 16.1 mph 19.6 mph N/A   Overcast
10:54 PM 30.2 °F 18.5 °F 24.8 °F 80% 29.71 in 10.0 mi NNW 17.3 mph - N/A   Overcast
11:14 PM 28.4 °F 17.0 °F 24.8 °F 86% 29.72 in 10.0 mi NNW 15.0 mph - N/A   Overcast
11:34 PM 28.4 °F 16.2 °F 24.8 °F 86% 29.71 in 10.0 mi NNW 17.3 mph 20.7 mph N/A   Overcast
11:54 PM 28.4 °F 18.0 °F 23.0 °F 80% 29.70 in 10.0 mi NNW 12.7 mph - N/A   Overcast